Location: Asheville, NC
(35.6000°N, 82.5500°W)
Time: 23:04:33
(UTC-04:00)

UNISAT 6 - Visible Passes

Search period start: 23 April 2018 00:00
Search period end: 03 May 2018 00:00
Orbit: 607 x 690 km, 97.8° (Epoch: 23 April)

Date Brightness Start Highest point End Pass type
(mag) Time Alt. Az. Time Alt. Az. Time Alt. Az.
23 Apr ? 00:15:49 10° NNW 00:16:57 14° NW 00:16:57 14° NW visible
23 Apr ? 23:04:07 10° NNE 23:05:48 23° NNE 23:05:48 23° NNE visible
24 Apr ? 23:30:24 10° N 23:32:26 25° N 23:32:26 25° N visible
25 Apr ? 22:20:31 10° NE 22:21:17 14° NE 22:21:17 14° NE visible
25 Apr ? 23:57:03 10° NNW 23:59:03 21° NW 23:59:03 21° NW visible
26 Apr ? 22:46:08 10° NNE 22:47:54 22° NNE 22:47:54 22° NNE visible
27 Apr ? 00:24:21 10° NNW 00:25:40 13° NW 00:25:40 13° NW visible
27 Apr ? 23:12:11 10° N 23:14:32 30° N 23:14:32 30° N visible
28 Apr ? 22:03:13 10° NE 22:03:22 11° NE 22:03:22 11° NE visible
28 Apr ? 23:38:35 10° N 23:41:08 29° NNW 23:41:08 29° NNW visible
29 Apr ? 22:28:21 10° NE 22:29:59 19° NE 22:29:59 19° NE visible
30 Apr ? 00:05:24 10° NNW 00:07:45 20° NW 00:07:45 20° NW visible
30 Apr ? 22:54:08 10° NNE 22:56:36 31° NNE 22:56:36 31° NNE visible
01 May ? 00:33:08 10° NW 00:34:23 12° WNW 00:34:23 12° WNW visible
01 May ? 23:20:19 10° N 23:23:13 38° N 23:23:13 38° N visible
02 May ? 22:10:51 10° NE 22:12:03 15° ENE 22:12:03 15° ENE visible
02 May ? 23:46:49 10° N 23:49:49 29° NW 23:49:49 29° NW visible
